When you browse on this site, cookies collect data to enhance your experience and personalize the content and advertising you see.
Visit our Privacy Policy to learn more. By continuing to use the site, you agree to this use of cookies and data.
  • en France
  • Liste des pays
  • À 7 jours
  • Température de l'eau
  • Carte satellitaire
  • Carte météo
  • Widgets météo
  • user-avatar
    Se connecter

    Météo par heure à Abuja

    Ce jour, 16 Janvier, Mercredi

    Heure Température Précipitation Vent Pression Humidité
    00:00 +29°C° 0 mm 1 m/s 710 mmHg 17%
    01:00 +27°C° 0 mm 2 m/s 711 mmHg 18%
    02:00 +27°C° 0 mm 2 m/s 710 mmHg 18%
    03:00 +26°C° 0 mm 1 m/s 710 mmHg 18%
    04:00 +26°C° 0 mm 1 m/s 710 mmHg 18%
    05:00 +25°C° 0 mm 1 m/s 710 mmHg 18%
    06:00 +25°C° 0 mm 1 m/s 710 mmHg 18%
    07:00 +24°C° 0 mm 1 m/s 710 mmHg 16%
    08:00 +27°C° 0 mm 1 m/s 711 mmHg 15%
    09:00 +29°C° 0 mm 1 m/s 711 mmHg 13%
    10:00 +32°C° 0 mm 1 m/s 712 mmHg 11%
    11:00 +34°C° 0 mm 1 m/s 712 mmHg 10%
    12:00 +36°C° 0 mm 1 m/s 711 mmHg 10%
    13:00 +39°C° 0 mm 1 m/s 711 mmHg 9%
    14:00 +39°C° 0 mm 1 m/s 710 mmHg 9%
    15:00 +36°C° 0 mm 0 m/s 710 mmHg 9%
    16:00 +37°C° 0 mm 0 m/s 709 mmHg 9%
    17:00 +35°C° 0 mm 0 m/s 709 mmHg 10%
    18:00 +35°C° 0 mm 1 m/s 709 mmHg 11%
    19:00 +33°C° 0 mm 1 m/s 709 mmHg 11%
    20:00 +33°C° 0 mm 1 m/s 709 mmHg 12%
    21:00 +32°C° 0 mm 1 m/s 710 mmHg 13%
    22:00 +31°C° 0 mm 1 m/s 710 mmHg 13%
    23:00 +30°C° 0 mm 1 m/s 710 mmHg 13%

    Demain, 17 Janvier, Jeudi

    Heure Température Précipitation Vent Pression Humidité
    00:00 +29°C° 0 mm 1 m/s 710 mmHg 13%
    01:00 +28°C° 0 mm 2 m/s 710 mmHg 12%
    02:00 +28°C° 0 mm 2 m/s 710 mmHg 12%
    03:00 +27°C° 0 mm 2 m/s 710 mmHg 12%
    04:00 +26°C° 0 mm 2 m/s 709 mmHg 11%
    05:00 +26°C° 0 mm 1 m/s 710 mmHg 11%
    06:00 +25°C° 0 mm 1 m/s 710 mmHg 11%
    07:00 +25°C° 0 mm 1 m/s 710 mmHg 11%
    08:00 +27°C° 0 mm 1 m/s 711 mmHg 11%
    09:00 +30°C° 0 mm 1 m/s 711 mmHg 11%
    10:00 +32°C° 0 mm 1 m/s 712 mmHg 11%
    11:00 +34°C° 0 mm 1 m/s 712 mmHg 10%
    12:00 +37°C° 0 mm 1 m/s 711 mmHg 8%
    13:00 +40°C° 0 mm 1 m/s 711 mmHg 7%
    14:00 +40°C° 0 mm 1 m/s 710 mmHg 7%
    15:00 +40°C° 0 mm 1 m/s 710 mmHg 6%
    16:00 +40°C° 0 mm 1 m/s 709 mmHg 5%
    17:00 +39°C° 0 mm 1 m/s 709 mmHg 6%
    18:00 +36°C° 0 mm 1 m/s 709 mmHg 7%
    19:00 +34°C° 0 mm 1 m/s 709 mmHg 8%
    20:00 +33°C° 0 mm 1 m/s 709 mmHg 8%
    21:00 +32°C° 0 mm 2 m/s 710 mmHg 9%
    22:00 +31°C° 0 mm 2 m/s 710 mmHg 9%
    23:00 +30°C° 0 mm 2 m/s 710 mmHg 9%

    Après-demain, 18 Janvier, Vendredi

    Heure Température Précipitation Vent Pression Humidité
    00:00 +30°C° 0 mm 2 m/s 710 mmHg 9%
    01:00 +29°C° 0 mm 2 m/s 710 mmHg 8%
    02:00 +28°C° 0 mm 2 m/s 710 mmHg 8%
    03:00 +28°C° 0 mm 2 m/s 709 mmHg 8%
    04:00 +27°C° 0 mm 2 m/s 709 mmHg 8%
    05:00 +27°C° 0 mm 2 m/s 709 mmHg 8%
    06:00 +26°C° 0 mm 1 m/s 710 mmHg 9%
    07:00 +25°C° 0 mm 1 m/s 710 mmHg 9%
    08:00 +27°C° 0 mm 1 m/s 711 mmHg 11%
    09:00 +29°C° 0 mm 2 m/s 712 mmHg 12%
    10:00 +31°C° 0 mm 2 m/s 712 mmHg 13%
    11:00 +34°C° 0 mm 2 m/s 712 mmHg 12%
    12:00 +36°C° 0 mm 2 m/s 711 mmHg 11%
    13:00 +37°C° 0 mm 2 m/s 711 mmHg 10%
    14:00 +38°C° 0 mm 2 m/s 710 mmHg 9%
    15:00 +37°C° 0 mm 1 m/s 709 mmHg 9%
    16:00 +39°C° 0 mm 1 m/s 709 mmHg 8%
    17:00 +36°C° 0 mm 1 m/s 709 mmHg 9%
    18:00 +34°C° 0 mm 1 m/s 709 mmHg 10%
    19:00 +33°C° 0 mm 1 m/s 709 mmHg 11%
    20:00 +32°C° 0 mm 1 m/s 709 mmHg 12%
    21:00 +31°C° 0 mm 1 m/s 710 mmHg 12%
    22:00 +30°C° 0 mm 1 m/s 710 mmHg 13%
    23:00 +30°C° 0 mm 1 m/s 710 mmHg 13%

    19 Janvier, Samedi

    Heure Température Précipitation Vent Pression Humidité
    00:00 +29°C° 0 mm 1 m/s 710 mmHg 13%
    01:00 +28°C° 0 mm 1 m/s 710 mmHg 13%
    02:00 +28°C° 0 mm 1 m/s 709 mmHg 13%
    03:00 +27°C° 0 mm 1 m/s 709 mmHg 12%
    04:00 +27°C° 0 mm 1 m/s 709 mmHg 12%
    05:00 +26°C° 0 mm 1 m/s 709 mmHg 16%
    06:00 +25°C° 0 mm 1 m/s 710 mmHg 20%
    07:00 +24°C° 0 mm 1 m/s 710 mmHg 23%
    08:00 +26°C° 0 mm 2 m/s 711 mmHg 33%
    09:00 +28°C° 0 mm 2 m/s 711 mmHg 43%
    10:00 +29°C° 0 mm 2 m/s 712 mmHg 54%
    11:00 +31°C° 0 mm 2 m/s 712 mmHg 45%
    12:00 +34°C° 0 mm 2 m/s 711 mmHg 36%
    13:00 +36°C° 0 mm 2 m/s 710 mmHg 27%
    14:00 +37°C° 0 mm 2 m/s 710 mmHg 24%
    15:00 +37°C° 0 mm 1 m/s 709 mmHg 22%
    16:00 +37°C° 0 mm 1 m/s 708 mmHg 19%
    17:00 +36°C° 0 mm 1 m/s 709 mmHg 21%
    18:00 +35°C° 0 mm 1 m/s 709 mmHg 22%
    19:00 +33°C° 0 mm 1 m/s 709 mmHg 24%
    20:00 +33°C° 0 mm 1 m/s 710 mmHg 25%
    21:00 +32°C° 0 mm 1 m/s 710 mmHg 26%
    22:00 +29°C° 0 mm 0 m/s 711 mmHg 27%
    23:00 +29°C° 0 mm 0 m/s 710 mmHg 28%

    20 Janvier, Dimanche

    Heure Température Précipitation Vent Pression Humidité
    00:00 +28°C° 0 mm 0 m/s 710 mmHg 29%
    01:00 +27°C° 0 mm 0 m/s 710 mmHg 30%
    02:00 +29°C° 0 mm 1 m/s 709 mmHg 31%
    03:00 +28°C° 0 mm 1 m/s 709 mmHg 32%
    04:00 +28°C° 0 mm 1 m/s 709 mmHg 33%
    05:00 +27°C° 0 mm 1 m/s 709 mmHg 40%
    06:00 +26°C° 0 mm 1 m/s 710 mmHg 48%
    07:00 +26°C° 0 mm 1 m/s 710 mmHg 55%
    08:00 +27°C° 0 mm 1 m/s 711 mmHg 55%
    09:00 +29°C° 0 mm 2 m/s 711 mmHg 55%
    10:00 +30°C° 0 mm 2 m/s 712 mmHg 55%
    11:00 +32°C° 0 mm 2 m/s 712 mmHg 48%
    12:00 +35°C° 0 mm 2 m/s 711 mmHg 41%
    13:00 +37°C° 0 mm 2 m/s 711 mmHg 33%
    14:00 +37°C° 0 mm 2 m/s 710 mmHg 32%
    15:00 +37°C° 0 mm 2 m/s 709 mmHg 30%
    16:00 +37°C° 0 mm 2 m/s 708 mmHg 28%
    17:00 +36°C° 0 mm 2 m/s 709 mmHg 30%
    18:00 +36°C° 0 mm 2 m/s 709 mmHg 32%
    19:00 +35°C° 0 mm 2 m/s 709 mmHg 34%
    20:00 +34°C° 0 mm 2 m/s 710 mmHg 36%
    21:00 +32°C° 0 mm 2 m/s 710 mmHg 39%
    22:00 +32°C° 0 mm 2 m/s 711 mmHg 41%
    23:00 +31°C° 0 mm 1 m/s 710 mmHg 42%

    21 Janvier, Lundi

    Heure Température Précipitation Vent Pression Humidité
    00:00 +31°C° 0 mm 1 m/s 710 mmHg 43%
    01:00 +28°C° 0 mm 0 m/s 710 mmHg 45%
    02:00 +30°C° 0 mm 1 m/s 710 mmHg 45%
    03:00 +30°C° 0 mm 1 m/s 709 mmHg 45%
    04:00 +30°C° 0 mm 1 m/s 709 mmHg 45%
    05:00 +29°C° 0 mm 1 m/s 710 mmHg 46%
    06:00 +29°C° 0 mm 1 m/s 710 mmHg 47%
    07:00 +29°C° 0 mm 2 m/s 710 mmHg 49%
    08:00 +30°C° 0 mm 2 m/s 711 mmHg 46%
    09:00 +31°C° 0 mm 2 m/s 711 mmHg 43%
    10:00 +33°C° 0 mm 3 m/s 712 mmHg 40%
    11:00 +35°C° 0 mm 2 m/s 711 mmHg 34%
    12:00 +36°C° 0 mm 2 m/s 711 mmHg 28%
    13:00 +38°C° 0 mm 2 m/s 710 mmHg 22%
    14:00 +38°C° 0 mm 2 m/s 709 mmHg 20%
    15:00 +39°C° 0 mm 2 m/s 709 mmHg 19%
    16:00 +39°C° 0 mm 1 m/s 708 mmHg 17%
    17:00 +37°C° 0 mm 1 m/s 708 mmHg 18%
    18:00 +37°C° 0 mm 2 m/s 708 mmHg 19%
    19:00 +36°C° 0 mm 2 m/s 708 mmHg 20%
    20:00 +34°C° 0 mm 1 m/s 708 mmHg 21%
    21:00 +33°C° 0 mm 1 m/s 709 mmHg 22%
    22:00 +32°C° 0 mm 1 m/s 709 mmHg 23%
    23:00 +31°C° 0 mm 1 m/s 709 mmHg 28%
    Voir plus